Home > Weather > Karachi > Past weeks

Flag for Pakistan Past Weather in Karachi, Sindh, Pakistan — Yesterday and Last 2 Weeks

Now
81 °F

Light rain. Broken clouds.


Feels Like: 86 °F
Forecast: 83 / 90 °F
Wind: 7 mph from West

Location: Karachi Airport

Current Time: Aug 27, 2016 at 3:20:17 PM

Latest Report: Aug 27, 2016 at 2:55 PM


Visibility: 4 mi

Pressure: 29.62 "Hg

Humidity: 84%

Dew Point: 75 °F

Location of KarachiLocation

Past Weather in Karachi — Graph

°F

Karachi Temperature Yesterday

Maximum temperature yesterday: 99 °F (at 12:55 PM)
Minimum temperature yesterday: 82 °F (at 2:25 AM)
Average temperature yesterday: 89 °F

High & Low Weather Summary for the Past Weeks

 TemperatureHumidityPressure
High99 °F (Aug 26, 12:55 PM)94% (Aug 27, 12:55 PM)29.74 "Hg (Aug 27, 12:55 PM)
Low75 °F (Aug 27, 12:55 PM)42% (Aug 26, 12:55 PM)29.47 "Hg (Aug 16, 3:55 PM)
Average86 °F66%29.59 "Hg
* Reported Aug 12 1:25 PM — Aug 27 1:55 PM, Karachi, Weather by CustomWeather, © 2016

Note: Actual official high and low records may vary slightly from our data, if they occured in-between our weather recording intervals... More about our weather records

Advertising

Karachi Weather History for the Previous 24 Hours

Scroll right to see more
 ConditionsComfort  
Time TempWeatherWind HumidityBarometerVisibility
1:55 PM
Sat, Aug 27
77 °FThunderstorms. Mostly cloudy.14 mph94%29.65 "Hg1 mi
1:25 PM75 °FThunderstorms. Mostly cloudy.25 mph94%29.65 "Hg1 mi
12:55 PM75 °FThunderstorms. Mostly cloudy.51 mph94%29.74 "Hg0 mi
12:25 PM97 °FRain. Broken clouds.30 mph47%29.65 "Hg2 mi
11:55 AM97 °FScattered clouds.5 mph44%29.65 "Hg4 mi
11:25 AM97 °FScattered clouds.3 mph47%29.68 "Hg4 mi
10:25 AM93 °FScattered clouds.5 mph53%29.68 "Hg4 mi
9:55 AM90 °FScattered clouds.3 mph59%29.68 "Hg4 mi
8:55 AM88 °FScattered clouds.6 mph66%29.68 "Hg4 mi
8:25 AM86 °FScattered clouds.6 mph70%29.68 "Hg4 mi
7:55 AM84 °FScattered clouds.7 mph74%29.68 "Hg4 mi
7:25 AM84 °FScattered clouds.10 mph74%29.68 "Hg4 mi
6:55 AM82 °FScattered clouds.9 mph79%29.68 "Hg4 mi
6:25 AM82 °FScattered clouds.10 mph79%29.68 "Hg4 mi
5:55 AM82 °FHaze.9 mph79%29.65 "Hg3 mi
5:25 AM82 °FHaze.10 mph79%29.65 "Hg3 mi
4:55 AM82 °FPassing clouds.15 mph74%29.65 "Hg3 mi
4:25 AM82 °FPassing clouds.12 mph74%29.65 "Hg3 mi
3:59 AM82 °FPassing clouds.9 mph79%29.65 "Hg3 mi
3:25 AM84 °FPassing clouds.12 mph74%29.65 "Hg4 mi
2:55 AM84 °FPassing clouds.13 mph74%29.65 "Hg4 mi
2:25 AM84 °FPassing clouds.14 mph74%29.65 "Hg4 mi
1:55 AM84 °FPassing clouds.12 mph74%29.65 "Hg4 mi
1:25 AM84 °FPassing clouds.14 mph70%29.65 "Hg4 mi
12:55 AM84 °FPassing clouds.12 mph74%29.65 "Hg4 mi
12:25 AM84 °FPassing clouds.14 mph74%29.68 "Hg4 mi
11:55 PM
Fri, Aug 26
84 °FPassing clouds.13 mph74%29.68 "Hg4 mi
11:25 PM84 °FPassing clouds.13 mph74%29.68 "Hg4 mi
10:55 PM84 °FPassing clouds.12 mph74%29.68 "Hg4 mi
10:25 PM84 °FPassing clouds.14 mph74%29.68 "Hg4 mi
9:55 PM86 °FPassing clouds.14 mph70%29.68 "Hg4 mi
9:25 PM86 °FPassing clouds.12 mph70%29.65 "Hg4 mi
8:55 PM86 °FPassing clouds.12 mph70%29.65 "Hg4 mi
8:25 PM86 °FPassing clouds.12 mph70%29.65 "Hg4 mi
7:55 PM88 °FPassing clouds.8 mph66%29.62 "Hg4 mi
7:25 PM88 °FPassing clouds.7 mph66%29.62 "Hg4 mi
6:55 PM90 °FPassing clouds.7 mph59%29.59 "Hg4 mi
6:25 PM90 °FScattered clouds.8 mph59%29.59 "Hg4 mi
5:55 PM91 °FScattered clouds.12 mph59%29.59 "Hg4 mi
5:25 PM93 °FScattered clouds.12 mph56%29.59 "Hg4 mi
4:55 PM93 °FScattered clouds.12 mph56%29.59 "Hg4 mi
4:25 PM95 °FScattered clouds.12 mph53%29.56 "Hg4 mi
3:55 PM97 °FScattered clouds.16 mph50%29.59 "Hg4 mi
3:25 PM97 °FScattered clouds.12 mph47%29.59 "Hg4 mi
Weather by CustomWeather, © 2016

See weather overviewHow to use our weather pages